Powrót do katalogu

STARLINK-35385

AktywnyŁącznośćVLEO
NORAD 65906·PAYLOAD·🇺🇸 United States

Wystrzelony Oct 7, 2025 z Cape Canaveral Space Force Station

Loading…

Następne Przeloty (najbliższe 24 godziny)

TLE

ŚwieżeSource: CelesTrak SupGP

Epoka: Sep 14, 2026, 22:29 UTC

1 65906C 25224AA  26257.93729167  .00007151  00000+0  21120-3 0  2576
2 65906  53.1575 207.9454 0001310  98.5029 145.2286 15.34397144    13

Śledź STARLINK-35385 w czasie rzeczywistym z AllMySat

Download on the App Store